Location: Saint-Maurice-d�Ard�che
(44.5216°N, 4.4002°E)
Time: 02:02:08
(UTC+00:00)

CZ-2C R/B - Pass Details

Date: 30 March 2020
Orbit: 785 x 870 km, 98.3° (Epoch: 05 June)

Event Time Altitude Azimuth Distance (km) Brightness Sun altitude
Rises 19:02:51 0° 25° (NNE) 3,295 5.7 -10.4°
Reaches altitude 10° 19:05:39 10° 40° (NE) 2,356 4.8 -10.9°
Maximum altitude 19:09:46 24° 93° (E) 1,602 3.6 -11.6°
Drops below altitude 10° 19:13:51 10° 146° (SE) 2,342 4.5 -12.3°
Enters shadow 19:13:59 10° 146° (SSE) 2,382 4.6 -12.3°
